GW0007 Weather Reports


Display with metric or nautical units.
time (UTC)temp
F
wind
direction
speed
MPH
gust
MPH
rain 1hr
in
rain 24hr
in
rain mn
in
humidity
%
barometer
mb
20260905164543 69 85 4.0 9.0 0.00 0.00 0.00 42 1018.9
20260905163047 69 85 1.0 7.0 0.00 0.00 0.00 43 1019.0
20260905161544 68 83 2.0 5.0 0.00 0.00 0.00 46 1019.0
20260905160055 66 41 2.0 4.0 0.00 0.00 0.00 45 1019.1
20260905154554 65 0 2.0 7.0 0.00 0.00 0.00 48 1019.1
20260905153055 63 65 1.0 4.0 0.00 0.00 0.00 53 1019.1
20260905151552 62 66 1.0 5.0 0.00 0.00 0.00 55 1019.3
20260905150056 60 323 0.0 2.0 0.00 0.00 0.00 58 1019.3
20260905144549 57 0 1.0 2.0 0.00 0.00 0.00 61 1019.2
20260905143054 55 310 0.0 2.0 0.00 0.00 0.00 68 1019.2
20260905141546 53 321 1.0 2.0 0.00 0.00 0.00 69 1019.1
20260905140057 53 283 0.0 3.0 0.00 0.00 0.00 68 1019.1
20260905134543 52 271 0.0 2.0 0.00 0.00 0.00 69 1018.8
20260905133049 53 247 0.0 1.0 0.00 0.00 0.00 66 1018.7
20260905131550 51 238 2.0 3.0 0.00 0.00 0.00 68 1018.3
20260905130053 52 237 0.0 3.0 0.00 0.00 0.00 65 1017.9
20260905124550 53 90 2.0 9.0 0.00 0.00 0.00 60 1017.7
20260905123049 53 69 2.0 5.0 0.00 0.00 0.00 60 1017.3
20260905121544 54 101 3.0 10.0 0.00 0.00 0.00 60 1017.1
20260905120043 54 74 4.0 10.0 0.00 0.00 0.00 60 1016.8
20260905114548 54 61 6.0 11.0 0.00 0.00 0.00 60 1016.5
20260905113044 55 72 6.0 15.0 0.00 0.00 0.00 58 1016.4
20260905111557 55 70 7.0 14.0 0.00 0.00 0.00 57 1016.1
20260905110041 56 82 6.0 10.0 0.00 0.00 0.00 57 1015.9
20260905104547 56 97 6.0 10.0 0.00 0.00 0.00 56 1016.2
20260905103045 56 82 5.0 9.0 0.00 0.00 0.00 55 1015.9
20260905101553 57 72 3.0 9.0 0.00 0.00 0.00 55 1015.7
20260905100105 57 83 5.0 13.0 0.00 0.00 0.00 54 1015.9
20260905094549 58 70 5.0 10.0 0.00 0.00 0.00 53 1016.2
20260905093044 58 83 2.0 7.0 0.00 0.00 0.00 53 1015.9
20260905091600 58 102 2.0 9.0 0.00 0.00 0.00 53 1015.6
20260905090047 58 93 5.0 11.0 0.00 0.00 0.00 53 1015.6
20260905084553 58 67 5.0 12.0 0.00 0.00 0.00 53 1015.4
20260905083048 58 35 6.0 10.0 0.00 0.00 0.00 53 1015.3
20260905081552 59 98 3.0 8.0 0.00 0.00 0.00 53 1015.5
20260905080056 59 69 4.0 8.0 0.00 0.00 0.00 53 1015.6
20260905074544 60 82 4.0 6.0 0.00 0.00 0.00 51 1015.5
20260905073055 62 65 4.0 10.0 0.00 0.00 0.00 49 1015.6
20260905071556 64 49 5.0 15.0 0.00 0.00 0.00 46 1015.7
20260905070050 64 63 6.0 11.0 0.00 0.00 0.00 45 1015.6
20260905064548 65 86 4.0 9.0 0.00 0.00 0.00 45 1015.8
20260905063100 65 79 3.0 6.0 0.00 0.00 0.00 44 1015.9
20260905061609 65 75 1.0 4.0 0.00 0.00 0.00 45 1015.5
20260905060052 65 91 2.0 5.0 0.00 0.00 0.00 44 1015.6
20260905054547 66 89 4.0 7.0 0.00 0.00 0.00 44 1015.3
20260905053053 66 101 5.0 6.0 0.00 0.00 0.00 44 1014.9
20260905051550 66 122 2.0 7.0 0.00 0.00 0.00 44 1014.7
20260905050055 66 312 1.0 4.0 0.00 0.00 0.00 43 1014.4
20260905044547 67 328 4.0 11.0 0.00 0.00 0.00 43 1014.0
20260905043045 68 336 7.0 13.0 0.00 0.00 0.00 41 1013.8
20260905041544 68 71 6.0 16.0 0.00 0.00 0.00 41 1013.7
20260905040045 68 331 7.0 17.0 0.00 0.00 0.00 41 1013.8
20260905034545 68 85 8.0 16.0 0.00 0.00 0.00 41 1013.8
20260905033053 70 70 3.0 12.0 0.00 0.00 0.00 39 1013.1
20260905031549 71 165 4.0 10.0 0.00 0.00 0.00 38 1012.5
20260905030050 73 35 8.0 15.0 0.00 0.00 0.00 36 1012.4
20260905024543 74 36 9.0 22.0 0.00 0.00 0.00 35 1012.4
20260905023052 73 11 3.0 4.0 0.00 0.00 0.00 29 1012.2
20260905021549 73 297 1.0 5.0 0.00 0.00 0.00 32 1011.8
20260905020058 74 248 2.0 6.0 0.00 0.00 0.00 29 1011.6
20260905014544 77 311 3.0 11.0 0.00 0.00 0.00 25 1011.2
20260905013047 79 309 5.0 13.0 0.00 0.00 0.00 25 1011.0
20260905011545 80 269 7.0 20.0 0.00 0.00 0.00 23 1011.0
20260905010101 80 293 8.0 15.0 0.00 0.00 0.00 23 1010.8
20260905004609 81 269 5.0 17.0 0.00 0.00 0.00 24 1010.7
20260905003049 81 302 7.0 18.0 0.00 0.00 0.00 25 1010.6
20260905001554 82 264 10.0 18.0 0.00 0.00 0.00 25 1010.4
20260905000219 82 280 16.0 28.0 0.00 0.00 0.00 23 1010.0
20260904223051 83 295 11.0 23.0 0.00 0.00 0.00 24 1010.4
20260904221558 83 252 10.0 20.0 0.00 0.00 0.00 25 1010.3
20260904220050 83 301 10.0 25.0 0.00 0.00 0.00 25 1010.4
20260904214545 83 317 9.0 20.0 0.00 0.00 0.00 25 1010.2
20260904213049 84 272 8.0 21.0 0.00 0.00 0.00 24 1010.1
20260904211545 83 228 11.0 25.0 0.00 0.00 0.00 22 1009.9
20260904210056 83 230 9.0 25.0 0.00 0.00 0.00 23 1009.6
20260904204549 83 347 11.0 21.0 0.00 0.00 0.00 23 1009.4
20260904203047 82 309 11.0 18.0 0.00 0.00 0.00 24 1009.4
20260904201545 83 319 8.0 23.0 0.00 0.00 0.00 22 1009.6
20260904194554 82 314 9.0 21.0 0.00 0.00 0.00 24 1009.6
20260904193051 81 304 9.0 20.0 0.00 0.00 0.00 25 1009.8
20260904191543 82 300 10.0 20.0 0.00 0.00 0.00 23 1009.8
20260904190050 82 292 7.0 16.0 0.00 0.00 0.00 24 1009.8
20260904184549 81 321 5.0 14.0 0.00 0.00 0.00 23 1009.7
20260904183046 80 246 6.0 12.0 0.00 0.00 0.00 27 1009.9
20260904181547 80 205 3.0 7.0 0.00 0.00 0.00 27 1009.8
20260904180052 78 285 1.0 7.0 0.00 0.00 0.00 32 1009.9
20260904174603 76 264 3.0 5.0 0.00 0.00 0.00 32 1010.0
20260904173058 75 0 1.0 2.0 0.00 0.00 0.00 30 1009.9
20260904171600 75 77 0.0 3.0 0.00 0.00 0.00 32 1009.8
20260904170051 74 56 0.0 5.0 0.00 0.00 0.00 34 1009.7